[[{"header":{"parameterUnit":"m.s-1","parameterCategory":1,"la1":30.2991,"la2":30.254,"lo1":-89.0895,"lo2":-89.0444,"dy":0.0017,"dx":0.0017,"nx":28,"ny":28,"refTime":"2024-08-15T03:00:00:Z","depth":0,"parameterNumber":2,"parameterNumberName":"U-component_of_WINDS"},"data":[0,0,0,0,0,0,0,0,0,0,0,0,0,0,0,0,0,0,0,0,0,0,0,0,0,0,0,0,0,0,0,0,0,0,0,0,0,0,0,0,0,0,0,0,0,0,0,0,0,0,0,0,0,0,0,0,0,0,-0.0901,-0.0901,0,-0.0975,-0.0976,-0.0977,-0.1016,-0.1016,-0.1016,-0.1016,-0.1092,-0.1094,-0.1096,0,0,0,0,0,0,0,0,0,0,0,0,0,-0.0794,-0.0796,-0.09,-0.0901,-0.0902,-0.0975,-0.0976,-0.0977,-0.1016,-0.1016,-0.1016,-0.1016,-0.1092,-0.1094,-0.1096,0,0,0,0,0,0,0,0,0,0,0,0,0,-0.0852,-0.0796,-0.09,-0.0931,-0.0934,-0.0975,-0.0976,-0.0977,-0.1016,-0.1016,-0.1016,-0.1016,-0.1091,-0.1094,-0.1097,-0.1113,0,0,-0.1106,-0.1107,0,0,0,0,0,0,0,0,-0.0848,-0.0855,-0.0925,-0.0929,-0.0933,-0.0986,-0.0966,-0.1022,-0.1016,-0.0985,-0.1016,-0.1016,-0.1057,-0.1063,-0.1076,-0.1116,-0.1119,-0.1106,-0.1108,-0.1109,-0.111,0,0,0,0,0,0,0,-0.0844,-0.0852,-0.093,-0.0926,-0.0931,-0.0941,-0.0949,-0.0977,-0.1019,-0.0988,-0.0991,-0.0999,-0.1059,-0.1073,-0.1078,-0.112,-0.1106,-0.1108,-0.111,-0.1111,-0.118,-0.118,0,0,0,0,0,0,-0.0835,-0.0849,-0.0928,-0.0932,-0.089,-0.0943,-0.0952,-0.0969,-0.1019,-0.1027,-0.0999,-0.1,-0.1068,-0.1075,-0.1081,-0.1105,-0.1109,-0.1112,-0.1113,-0.118,-0.118,-0.118,0,0,0,0,0,0,-0.0833,-0.0842,-0.0925,-0.0891,-0.0903,-0.0945,-0.0963,-0.097,-0.0985,-0.1028,-0.1035,-0.1006,-0.1069,-0.1077,-0.1105,-0.1108,-0.1113,-0.1116,-0.118,-0.118,-0.118,-0.1152,0,0,0,0,0,0,-0.083,-0.0841,-0.0847,-0.0891,-0.0904,-0.0947,-0.0963,-0.0972,-0.099,-0.0993,-0.1036,-0.1043,-0.1069,-0.1101,-0.1108,-0.1112,-0.1118,-0.118,-0.118,-0.118,-0.1152,-0.1151,-0.1149,0,0,0,0,0,-0.0826,-0.0835,-0.0847,-0.0856,-0.0913,-0.0947,-0.0954,-0.0984,-0.099,-0.0997,-0.1025,-0.1042,-0.1107,-0.1103,-0.1112,-0.1117,-0.118,-0.118,-0.118,-0.1153,-0.1151,-0.1149,0,0,0,0,0,0,-0.0789,-0.0841,-0.0855,-0.0879,-0.0908,-0.0953,-0.0962,-0.098,-0.1008,-0.101,-0.1046,-0.1055,-0.108,-0.1101,-0.1096,-0.1137,-0.1145,-0.1147,-0.1122,-0.112,-0.1118,-0.1113,-0.112,0,0,0,0,0,-0.0784,-0.0807,-0.0851,-0.0868,-0.0882,-0.092,-0.0936,-0.0956,-0.0988,-0.1,-0.103,-0.106,-0.1088,-0.1105,-0.1132,-0.1156,-0.1167,-0.1164,-0.1162,-0.1161,-0.1162,-0.1178,-0.1178,-0.1181,-0.1181,-0.1181,0,0,-0.0773,-0.0804,-0.0816,-0.0862,-0.0887,-0.0911,-0.093,-0.0954,-0.0972,-0.1004,-0.1033,-0.1056,-0.1092,-0.1119,-0.1132,-0.1137,-0.1164,-0.1161,-0.1159,-0.1162,-0.1179,-0.1178,-0.1178,-0.1181,-0.1181,-0.1181,0,0,-0.0766,-0.0791,-0.0809,-0.0834,-0.0873,-0.0898,-0.0902,-0.0945,-0.0962,-0.0992,-0.1017,-0.104,-0.1085,-0.1111,-0.113,-0.1135,-0.1153,-0.1143,-0.1135,-0.115,-0.115,-0.115,-0.1154,-0.1154,-0.1144,-0.1144,-0.1144,0,-0.0747,-0.0784,-0.0816,-0.0839,-0.0859,-0.089,-0.091,-0.0932,-0.0977,-0.0991,-0.0996,-0.1056,-0.1083,-0.1117,-0.1118,-0.1132,-0.1139,-0.1138,-0.1147,-0.1148,-0.1148,-0.1152,-0.1153,-0.1143,-0.1143,-0.1143,-0.1143,0,-0.076,-0.0786,-0.0796,-0.084,-0.0861,-0.0881,-0.0918,-0.0935,-0.0955,-0.098,-0.1011,-0.1044,-0.108,-0.1089,-0.1108,-0.1127,-0.1129,-0.114,-0.115,-0.1146,-0.115,-0.1152,-0.1141,-0.1142,-0.1142,-0.1142,0,0,-0.0731,-0.0794,-0.0797,-0.0818,-0.0864,-0.0884,-0.0908,-0.0943,-0.0958,-0.0989,-0.101,-0.105,-0.1061,-0.1083,-0.1105,-0.1118,-0.1123,-0.1129,-0.113,-0.1127,-0.1148,-0.1139,-0.114,-0.1135,-0.1135,-0.1136,-0.1145,0,-0.0731,-0.0774,-0.0805,-0.0836,-0.0861,-0.0892,-0.0913,-0.0944,-0.0968,-0.0994,-0.1021,-0.1049,-0.1061,-0.1075,-0.109,-0.1119,-0.1128,-0.1119,-0.1156,-0.1157,-0.1147,-0.1142,-0.1133,-0.114,-0.1147,-0.1147,-0.1147,0,-0.0736,-0.0767,-0.0801,-0.0847,-0.0858,-0.0876,-0.0913,-0.0936,-0.0972,-0.0989,-0.1015,-0.1038,-0.1065,-0.1072,-0.1111,-0.1105,-0.1122,-0.1139,-0.114,-0.1145,-0.1152,-0.1148,-0.1143,-0.1144,-0.115,-0.115,-0.115,0,-0.0713,-0.0763,-0.0791,-0.0808,-0.0861,-0.0873,-0.0896,-0.0932,-0.0952,-0.0984,-0.0998,-0.1032,-0.1051,-0.1078,-0.1111,-0.1112,-0.1147,-0.1156,-0.1163,-0.1162,-0.1169,-0.1168,-0.1167,-0.1179,-0.1179,-0.1179,-0.1179,0,-0.071,-0.073,-0.0781,-0.0798,-0.0822,-0.0858,-0.0881,-0.0907,-0.0939,-0.0963,-0.0991,-0.1013,-0.1054,-0.1081,-0.1106,-0.1136,-0.1144,-0.1159,-0.1166,-0.1157,-0.1156,-0.1169,-0.117,-0.1179,-0.1179,-0.1179,-0.1179,0,-0.0688,-0.0723,-0.0755,-0.0803,-0.0816,-0.0832,-0.0874,-0.0892,-0.0919,-0.0949,-0.0958,-0.1,-0.1033,-0.1068,-0.1113,-0.1131,-0.116,-0.1168,-0.1147,-0.1151,-0.1156,-0.1156,-0.1165,-0.1169,-0.1176,-0.1176,-0.1176,0,-0.0684,-0.0701,-0.0751,-0.0769,-0.0792,-0.082,-0.0841,-0.0878,-0.0899,-0.0943,-0.0956,-0.0992,-0.1023,-0.1075,-0.111,-0.1145,-0.1155,-0.1156,-0.1161,-0.1152,-0.1157,-0.1156,-0.1159,-0.1155,-0.1154,-0.1154,-0.1154,0,-0.0674,-0.0691,-0.0721,-0.0757,-0.0782,-0.0812,-0.0844,-0.0857,-0.09,-0.0923,-0.0957,-0.0981,-0.1028,-0.1064,-0.1103,-0.1128,-0.1149,-0.1153,-0.1156,-0.1148,-0.1135,-0.1144,-0.1144,-0.1152,-0.1152,-0.1152,-0.1153,-0.1153,-0.0662,-0.0679,-0.0718,-0.0751,-0.0779,-0.0808,-0.0828,-0.0859,-0.0888,-0.093,-0.095,-0.0985,-0.1023,-0.1079,-0.1103,-0.1132,-0.1138,-0.1143,-0.1144,-0.1145,-0.1143,-0.113,-0.1139,-0.1139,-0.1139,-0.1139,-0.1139,0,-0.0655,-0.0682,-0.0712,-0.0756,-0.0782,-0.08,-0.0836,-0.0857,-0.0888,-0.0922,-0.0952,-0.0993,-0.1028,-0.1067,-0.1105,-0.1121,-0.1132,-0.113,-0.1129,-0.1135,-0.1135,-0.1129,-0.112,-0.112,-0.112,-0.112,-0.112,-0.112,-0.0654,-0.0685,-0.0707,-0.0752,-0.0779,-0.0814,-0.0834,-0.0862,-0.0889,-0.0934,-0.0964,-0.0989,-0.1026,-0.1067,-0.1101,-0.1111,-0.1124,-0.112,-0.1133,-0.1133,-0.1134,-0.1136,-0.113,-0.1122,-0.1122,-0.1131,-0.1131,-0.1131]},{"header":{"parameterUnit":"m.s-1","parameterCategory":1,"la1":30.2991,"la2":30.254,"lo1":-89.0895,"lo2":-89.0444,"dy":0.0017,"dx":0.0017,"nx":28,"ny":28,"refTime":"2024-08-15T03:00:00:Z","depth":0,"parameterNumber":3,"parameterNumberName":"V-component_of_WINDS"},"data":[0,0,0,0,0,0,0,0,0,0,0,0,0,0,0,0,0,0,0,0,0,0,0,0,0,0,0,0,0,0,0,0,0,0,0,0,0,0,0,0,0,0,0,0,0,0,0,0,0,0,0,0,0,0,0,0,0,0,2.2302,2.2302,0,2.231,2.231,2.231,2.2286,2.2285,2.2284,2.2283,2.229,2.2291,2.2292,0,0,0,0,0,0,0,0,0,0,0,0,0,2.2265,2.2266,2.2302,2.2302,2.2303,2.231,2.231,2.231,2.2286,2.2285,2.2284,2.2283,2.229,2.2291,2.2292,0,0,0,0,0,0,0,0,0,0,0,0,0,2.2278,2.2266,2.2302,2.2291,2.229,2.231,2.231,2.231,2.2286,2.2285,2.2284,2.2283,2.2289,2.2291,2.2292,2.2322,0,0,2.2296,2.2296,0,0,0,0,0,0,0,0,2.2277,2.2279,2.2293,2.2292,2.2291,2.2296,2.2299,2.2314,2.2286,2.2288,2.2283,2.2282,2.2293,2.2294,2.2297,2.2322,2.2322,2.2296,2.2297,2.2297,2.2298,0,0,0,0,0,0,0,2.2276,2.2279,2.2305,2.2293,2.2292,2.2285,2.2286,2.2302,2.2296,2.2287,2.2286,2.2287,2.2292,2.2296,2.2297,2.2322,2.2296,2.2297,2.2298,2.2298,2.237,2.2371,0,0,0,0,0,0,2.2277,2.2278,2.2305,2.2305,2.2281,2.2287,2.2288,2.2295,2.2296,2.2295,2.2288,2.2286,2.2294,2.2296,2.2297,2.2331,2.2297,2.2298,2.2299,2.2369,2.237,2.2371,0,0,0,0,0,0,2.2277,2.228,2.2305,2.2291,2.2294,2.2289,2.2298,2.2296,2.23,2.2296,2.2295,2.2293,2.2294,2.2296,2.2315,2.2331,2.2299,2.23,2.2367,2.2369,2.2371,2.2399,0,0,0,0,0,0,2.2276,2.228,2.2292,2.2292,2.2295,2.2323,2.2299,2.2297,2.2303,2.23,2.2301,2.23,2.2293,2.2314,2.2317,2.2332,2.2301,2.2366,2.2368,2.237,2.2397,2.2402,2.2406,0,0,0,0,0,2.2274,2.23,2.2292,2.2296,2.231,2.2324,2.2326,2.2317,2.2304,2.2315,2.2312,2.23,2.2329,2.2316,2.2319,2.2335,2.2365,2.2368,2.237,2.2395,2.2401,2.2406,0,0,0,0,0,0,2.2302,2.23,2.2291,2.2318,2.2321,2.232,2.2334,2.2324,2.2332,2.2329,2.2318,2.2318,2.2339,2.2339,2.2325,2.2363,2.2344,2.2348,2.2362,2.2368,2.2372,2.2371,2.2302,0,0,0,0,0,2.2311,2.2323,2.2321,2.2344,2.2346,2.234,2.2346,2.2339,2.2342,2.2344,2.2342,2.2345,2.2355,2.2362,2.237,2.2397,2.2396,2.2409,2.2414,2.2418,2.242,2.2432,2.2438,2.238,2.238,2.238,0,0,2.2329,2.233,2.2338,2.2349,2.2351,2.2363,2.2341,2.2356,2.2364,2.2346,2.2364,2.2363,2.2366,2.2389,2.2399,2.2389,2.2436,2.2421,2.2424,2.2424,2.2435,2.2441,2.2446,2.2381,2.2381,2.2381,0,0,2.237,2.2372,2.2391,2.2393,2.2396,2.2391,2.2396,2.2396,2.2395,2.2413,2.2398,2.2408,2.2426,2.2428,2.2431,2.247,2.2458,2.2473,2.2496,2.2508,2.2513,2.2517,2.2529,2.2534,2.2476,2.2476,2.2476,0,2.2392,2.2411,2.2402,2.2416,2.2421,2.2404,2.2422,2.2425,2.2431,2.2434,2.2423,2.2443,2.2444,2.2466,2.2476,2.248,2.2483,2.2473,2.2513,2.2517,2.252,2.2532,2.2537,2.2478,2.2478,2.2478,2.2478,0,2.2438,2.2451,2.2465,2.2471,2.2477,2.2493,2.2486,2.2493,2.2485,2.2482,2.2499,2.25,2.2507,2.2512,2.2505,2.2533,2.2527,2.2515,2.2496,2.2528,2.2538,2.2543,2.248,2.248,2.2479,2.2479,0,0,2.2496,2.2495,2.25,2.2502,2.2503,2.2513,2.2528,2.2535,2.2541,2.2545,2.2556,2.2571,2.2559,2.2563,2.2556,2.2567,2.2596,2.2553,2.2553,2.256,2.2624,2.2632,2.2638,2.2588,2.2589,2.259,2.2623,0,2.2534,2.2559,2.2551,2.2577,2.2587,2.2571,2.2584,2.2586,2.2583,2.2591,2.2587,2.2597,2.2582,2.2584,2.2594,2.259,2.2608,2.2588,2.2597,2.2598,2.2596,2.2643,2.2652,2.2684,2.2628,2.2628,2.2629,0,2.2582,2.2587,2.2614,2.2612,2.2616,2.2628,2.2633,2.2641,2.2643,2.2639,2.2643,2.2633,2.2647,2.2628,2.2646,2.2632,2.2636,2.2634,2.2635,2.2635,2.2614,2.2643,2.2694,2.2698,2.2636,2.2635,2.2635,0,2.2619,2.2633,2.2651,2.2653,2.2651,2.266,2.2659,2.266,2.2664,2.2668,2.2671,2.2677,2.268,2.2685,2.2676,2.2664,2.2695,2.2676,2.2691,2.2691,2.2697,2.2697,2.2749,2.2702,2.2702,2.2702,2.2702,0,2.2662,2.2678,2.2667,2.2678,2.2695,2.2685,2.2702,2.27,2.27,2.2709,2.2696,2.2705,2.2694,2.2702,2.2695,2.271,2.2712,2.2709,2.2706,2.2709,2.2709,2.271,2.2707,2.2703,2.2703,2.2703,2.2703,0,2.2706,2.27,2.2717,2.2714,2.2713,2.2726,2.2723,2.2732,2.2728,2.2739,2.2742,2.2734,2.2742,2.2735,2.2743,2.2738,2.2757,2.2753,2.2757,2.2755,2.277,2.2768,2.2823,2.2829,2.278,2.278,2.2781,0,2.2733,2.2746,2.2743,2.2748,2.2749,2.2757,2.2761,2.2751,2.2756,2.2758,2.2766,2.2773,2.2778,2.2791,2.2786,2.2791,2.2786,2.2805,2.2787,2.2788,2.2784,2.2783,2.2783,2.2808,2.2809,2.2809,2.281,0,2.2782,2.2777,2.2784,2.2789,2.2794,2.2797,2.28,2.2804,2.2794,2.28,2.2807,2.2811,2.2818,2.2825,2.2828,2.2827,2.2816,2.2815,2.2819,2.2821,2.2822,2.282,2.2765,2.2814,2.2814,2.2813,2.2813,2.2813,2.2817,2.2827,2.2826,2.2833,2.2833,2.2836,2.2843,2.284,2.2846,2.2851,2.2844,2.2853,2.2853,2.2857,2.2857,2.2863,2.2855,2.2861,2.2862,2.2863,2.2864,2.2822,2.2864,2.2864,2.2864,2.2864,2.2864,0,2.2863,2.2862,2.2869,2.2872,2.2877,2.2866,2.2868,2.2873,2.2881,2.2881,2.2886,2.2894,2.29,2.2895,2.29,2.2905,2.29,2.2907,2.2906,2.2905,2.2872,2.2868,2.2911,2.2911,2.2911,2.2911,2.2911,2.2911,2.2888,2.2902,2.2898,2.2912,2.291,2.2919,2.292,2.2922,2.2922,2.2931,2.2936,2.2933,2.293,2.2935,2.2939,2.2937,2.2939,2.2947,2.2943,2.2912,2.2908,2.2903,2.2899,2.2948,2.2948,2.2976,2.2976,2.2976]}]]